Kozani Airport, Greece

12:55 AM EEST on September 27, 2016 (GMT +0300)
Filippos

Weather History for LGKZ - September, 2013

Change the Weather History Date:

Saturday, September 21, 2013

  Actual Average Record
Temperature  
Mean Temperature 63 °F -  
Max Temperature 73 °F - - ()
Min Temperature 53 °F - - ()
Degree Days  
Heating Degree Days 2    
Growing Degree Days 13 (Base 50)    
Moisture  
Dew Point 37 °F    
Average Humidity 41    
Maximum Humidity 58    
Minimum Humidity 25    
Precipitation  
Precipitation 0.00 in - - ()
Sea Level Pressure  
Sea Level Pressure 30.08 in    
Wind  
Wind Speed 9 mph ()    
Max Wind Speed 14 mph    
Max Gust Speed -    
Visibility 6.2 miles    
Events      
T = Trace of Precipitation, MM = Missing Value Source: Averaged Metar Reports

Daily Weather History Graph

Daily Weather History Graph

Search for Another Location

Airport or City:

Trip Planner

Search our weather history database for the weather conditions in past years. The results will help you decide how hot, cold, wet, or windy it might be!

Date:

Astronomy

Sep. 21, 2013 Rise Set
Actual Time 7:19 AM EEST 7:31 PM EEST
Civil Twilight 6:52 AM EEST 7:58 PM EEST
Nautical Twilight 6:20 AM EEST 8:30 PM EEST
Astronomical Twilight 5:47 AM EEST 9:02 PM EEST
Moon 8:30 PM EEST (9/21) 9:18 AM EEST (9/21)
Length of Visible Light 13h 06m
Length of Day
12h 12m
Waning Gibbous, 96% of the Moon is Illuminated
Sep 21
Waning Gibbous
Sep 27
Last Quarter
Oct 5
New
Oct 12
First Quarter
Oct 19
Full

Hourly Weather History & Observations

Time (EEST) Temp. Dew Point Humidity Pressure Visibility Wind Dir Wind Speed Gust Speed Precip Events Conditions
12:20 AM 60.8 °F 41.0 °F 48% 30.04 in - WSW 9.2 mph - N/A   Unknown
12:50 AM 59.0 °F 41.0 °F 51% 30.06 in - WSW 9.2 mph - N/A   Unknown
1:20 AM 57.2 °F 39.2 °F 51% 30.06 in - WSW 9.2 mph - N/A   Unknown
1:50 AM 57.2 °F 39.2 °F 51% 30.06 in - WSW 10.4 mph - N/A   Unknown
2:20 AM 57.2 °F 39.2 °F 51% 30.06 in - WSW 10.4 mph - N/A   Unknown
2:50 AM 57.2 °F 39.2 °F 51% 30.06 in - WSW 11.5 mph - N/A   Unknown
3:20 AM 57.2 °F 39.2 °F 51% 30.06 in - WSW 12.7 mph - N/A   Unknown
3:50 AM 55.4 °F 39.2 °F 54% 30.06 in - WSW 11.5 mph - N/A   Unknown
4:20 AM 55.4 °F 39.2 °F 54% 30.06 in - WSW 10.4 mph - N/A   Unknown
4:50 AM 53.6 °F 39.2 °F 58% 30.06 in - WSW 9.2 mph - N/A   Unknown
5:20 AM 53.6 °F 39.2 °F 58% 30.06 in - WSW 10.4 mph - N/A   Unknown
5:50 AM 53.6 °F 39.2 °F 58% 30.06 in - WSW 11.5 mph - N/A   Unknown
6:20 AM 53.6 °F 39.2 °F 58% 30.06 in - WSW 10.4 mph - N/A   Unknown
6:50 AM 53.6 °F 39.2 °F 58% 30.09 in - WSW 10.4 mph - N/A   Unknown
7:20 AM 53.6 °F 39.2 °F 58% 30.09 in - WSW 11.5 mph - N/A   Unknown
7:50 AM 53.6 °F 39.2 °F 58% 30.09 in 6.2 mi WSW 11.5 mph - N/A   Scattered Clouds
8:50 AM 57.2 °F 39.2 °F 51% 30.12 in 6.2 mi WSW 12.7 mph - N/A   Scattered Clouds
9:50 AM 59.0 °F 39.2 °F 48% 30.12 in 6.2 mi WSW 13.8 mph - N/A   Scattered Clouds
10:50 AM 62.6 °F 39.2 °F 42% 30.12 in 6.2 mi WSW 12.7 mph - N/A   Scattered Clouds
11:50 AM 66.2 °F 39.2 °F 37% 30.12 in 6.2 mi WSW 8.1 mph - N/A   Scattered Clouds
12:50 PM 68.0 °F 39.2 °F 35% 30.12 in 6.2 mi WSW 8.1 mph - N/A   Scattered Clouds
1:50 PM 69.8 °F 37.4 °F 31% 30.09 in 6.2 mi WSW 10.4 mph - N/A   Scattered Clouds
2:20 PM 71.6 °F 37.4 °F 29% 30.09 in - WSW 8.1 mph - N/A   Unknown
2:50 PM 71.6 °F 37.4 °F 29% 30.09 in - WSW 11.5 mph - N/A   Unknown
3:20 PM 73.4 °F 35.6 °F 25% 30.09 in - WSW 10.4 mph - N/A   Unknown
3:50 PM 71.6 °F 35.6 °F 27% 30.09 in - WSW 10.4 mph - N/A   Unknown
4:20 PM 71.6 °F 35.6 °F 27% 30.06 in - WSW 12.7 mph - N/A   Unknown
4:50 PM 71.6 °F 33.8 °F 25% 30.06 in - WSW 11.5 mph - N/A   Unknown
5:20 PM 71.6 °F 35.6 °F 27% 30.06 in - WSW 11.5 mph - N/A   Unknown
5:50 PM 71.6 °F 33.8 °F 25% 30.06 in - WSW 10.4 mph - N/A   Unknown
6:20 PM 71.6 °F 33.8 °F 25% 30.06 in - WSW 10.4 mph - N/A   Unknown
6:50 PM 69.8 °F 33.8 °F 27% 30.06 in - WSW 8.1 mph - N/A   Unknown
7:20 PM 68.0 °F 33.8 °F 28% 30.06 in - WSW 5.8 mph - N/A   Unknown
7:50 PM 66.2 °F 35.6 °F 32% 30.06 in - WSW 5.8 mph - N/A   Unknown
8:20 PM 64.4 °F 35.6 °F 34% 30.09 in - Variable 3.5 mph - N/A   Unknown
8:50 PM 62.6 °F 33.8 °F 34% 30.09 in - Variable 2.3 mph - N/A   Unknown
9:20 PM 64.4 °F 33.8 °F 32% 30.12 in - Variable 3.5 mph - N/A   Unknown
9:50 PM 62.6 °F 33.8 °F 34% 30.12 in - WSW 4.6 mph - N/A   Unknown
10:20 PM 62.6 °F 33.8 °F 34% 30.12 in - WSW 5.8 mph - N/A   Unknown
10:50 PM 60.8 °F 33.8 °F 36% 30.12 in - WSW 4.6 mph - N/A   Unknown
11:20 PM 60.8 °F 35.6 °F 39% 30.15 in - WSW 4.6 mph - N/A   Unknown
11:50 PM 60.8 °F 35.6 °F 39% 30.15 in - WSW 6.9 mph - N/A   Unknown